Date String (YYYY-MM-DD hh:mm:ss) UTC,Instrument flags,Ambient pressure (hPa),Sample flow (lpm),Bypass flow (lpm),Sample temperature (°C),Ambient temperature (°C),ASC tube jacket temperature (°C),LED temperature (°C),Box temperature (°C),Sample RH (%),Span deviation,Mass concentration (μg/m³),Mass concentration (μg/m³),Mass concentration (μg/m³)
DateTimeUTC,F1_M11,P_M11,Q1_M11,Q2_M11,T1_M11,T2_M11,T3_M11,T4_M11,T5_M11,U1_M11,ZSPAN_M11,X0_M11,X2_M11,X1_M11
2021-11-25 19:00:00,,0832.4,4.99,0.00,25.5,24.8,00.0,34.3,27.4,07.2,0000.0,0005.26,0002.45,0001.85
2021-11-25 19:01:00,,0832.4,5.00,0.00,25.5,24.8,00.0,34.4,27.4,06.8,0000.0,0004.91,0002.44,0001.86
2021-11-25 19:02:00,,0832.3,4.99,0.00,25.6,24.8,00.0,34.4,27.5,07.0,0000.0,0004.91,0002.42,0001.86
2021-11-25 19:03:00,,0832.3,5.00,0.00,25.6,24.8,00.0,34.4,27.5,06.9,0000.0,0004.92,0002.43,0001.88
2021-11-25 19:04:00,,0832.3,5.00,0.00,25.6,24.9,00.0,34.4,27.5,06.7,0000.0,0005.09,0002.46,0001.89
2021-11-25 19:05:00,,0832.3,4.99,0.00,25.6,24.9,00.0,34.5,27.5,06.8,0000.0,0004.86,0002.47,0001.90
2021-11-25 19:06:00,,0832.4,5.02,0.00,25.6,24.9,00.0,34.5,27.5,07.1,0000.0,0004.40,0002.53,0001.92
2021-11-25 19:07:00,,0832.4,4.99,0.00,25.6,24.9,00.0,34.5,27.6,06.9,0000.0,0004.72,0002.54,0001.93
2021-11-25 19:08:00,,0832.3,5.00,0.00,25.7,24.9,00.0,34.5,27.6,06.4,0000.0,0004.82,0002.47,0001.90
2021-11-25 19:09:00,,0832.3,5.01,0.00,25.7,24.9,00.0,34.5,27.6,06.5,0000.0,0004.65,0002.40,0001.87
2021-11-25 19:10:00,,0832.3,4.99,0.00,25.7,25.0,00.0,34.5,27.6,06.4,0000.0,0004.60,0002.36,0001.85
2021-11-25 19:11:00,,0832.3,5.01,0.00,25.7,25.0,00.0,34.6,27.6,06.4,0000.0,0004.67,0002.36,0001.82
2021-11-25 19:12:00,,0832.3,4.98,0.00,25.7,25.0,00.0,34.6,27.6,06.5,0000.0,0004.85,0002.40,0001.80
2021-11-25 19:13:00,,0832.3,5.01,0.00,25.7,25.0,00.0,34.6,27.6,06.0,0000.0,0004.79,0002.43,0001.77
2021-11-25 19:14:00,,0832.3,4.99,0.00,25.8,25.1,00.0,34.6,27.7,05.8,0000.0,0004.93,0002.45,0001.72
2021-11-25 19:15:00,,0832.2,5.01,0.00,25.8,25.1,00.0,34.6,27.7,06.0,0000.0,0004.99,0002.42,0001.69
2021-11-25 19:16:00,,0832.2,4.99,0.00,25.8,25.1,00.0,34.7,27.7,06.5,0000.0,0005.26,0002.47,0001.69
2021-11-25 19:17:00,,0832.3,5.01,0.00,25.8,25.1,00.0,34.7,27.7,06.5,0000.0,0005.17,0002.36,0001.66
2021-11-25 19:18:00,,0832.2,5.00,0.00,25.8,25.2,00.0,34.7,27.7,06.6,0000.0,0005.88,0002.31,0001.63
2021-11-25 19:19:00,,0832.2,4.99,0.00,25.8,25.2,00.0,34.7,27.8,05.6,0000.0,0005.81,0002.34,0001.60
2021-11-25 19:20:00,,0832.3,5.01,0.00,25.9,25.2,00.0,34.7,27.8,05.5,0000.0,0006.15,0002.37,0001.55
2021-11-25 19:21:00,,0832.2,4.99,0.00,25.9,25.2,00.0,34.8,27.8,05.3,0000.0,0006.18,0002.32,0001.50
2021-11-25 19:22:00,,0832.2,5.01,0.00,25.9,25.2,00.0,34.8,27.8,05.3,0000.0,0006.18,0002.28,0001.45
2021-11-25 19:23:00,,0832.2,5.01,0.00,25.9,25.3,00.0,34.8,27.8,05.2,0000.0,0005.95,0002.18,0001.38
2021-11-25 19:24:00,,0832.1,5.00,0.00,26.0,25.3,00.0,34.8,27.9,05.3,0000.0,0005.76,0002.12,0001.34
2021-11-25 19:25:00,,0832.1,5.00,0.00,26.0,25.3,00.0,34.8,27.9,05.3,0000.0,0005.61,0002.04,0001.31
2021-11-25 19:26:00,,0832.1,5.01,0.00,26.0,25.3,00.0,34.8,27.9,05.3,0000.0,0005.33,0001.97,0001.28
2021-11-25 19:27:00,,0832.1,4.99,0.00,26.0,25.3,00.0,34.9,27.9,05.3,0000.0,0005.11,0001.88,0001.23
2021-11-25 19:28:00,,0832.1,5.00,0.00,26.0,25.3,00.0,34.9,27.9,05.3,0000.0,0005.24,0001.87,0001.18
2021-11-25 19:29:00,,0832.1,5.01,0.00,26.1,25.3,00.0,34.9,27.9,05.3,0000.0,0004.31,0001.90,0001.13
2021-11-25 19:30:00,,0832.1,5.00,0.00,26.1,25.3,00.0,34.9,28.0,05.3,0000.0,0003.98,0001.87,0001.10
2021-11-25 19:31:00,,0832.2,4.99,0.00,26.1,25.4,00.0,34.9,28.0,05.4,0000.0,0003.68,0001.82,0001.10
2021-11-25 19:32:00,,0832.1,5.01,0.00,26.1,25.4,00.0,35.0,28.0,05.4,0000.0,0003.65,0001.83,0001.11
2021-11-25 19:33:00,,0832.1,5.00,0.00,26.1,25.4,00.0,35.0,28.0,05.3,0000.0,0003.59,0001.81,0001.13
2021-11-25 19:34:00,,0832.1,5.01,0.00,26.2,25.4,00.0,35.0,28.0,05.3,0000.0,0003.65,0001.82,0001.14
2021-11-25 19:35:00,,0832.1,5.01,0.00,26.2,25.4,00.0,35.0,28.0,05.3,0000.0,0003.59,0001.79,0001.14
2021-11-25 19:36:00,,0832.1,4.99,0.00,26.2,25.4,00.0,35.0,28.0,06.7,0000.0,0003.64,0001.87,0001.20
2021-11-25 19:37:00,,0832.2,4.99,0.00,26.2,25.4,00.0,35.1,28.0,08.2,0000.0,0003.91,0002.08,0001.38
2021-11-25 19:38:00,,0832.3,5.01,0.00,26.2,25.5,00.0,35.1,28.1,08.2,0000.0,0004.05,0002.31,0001.56
2021-11-25 19:39:00,,0832.2,5.00,0.00,26.2,25.5,00.0,35.1,28.1,08.0,0000.0,0004.24,0002.44,0001.69
2021-11-25 19:40:00,,0832.2,4.99,0.00,26.3,25.5,00.0,35.1,28.1,07.7,0000.0,0004.31,0002.53,0001.81
2021-11-25 19:41:00,,0832.2,5.01,0.00,26.3,25.5,00.0,35.1,28.1,07.4,0000.0,0005.58,0002.67,0001.92
2021-11-25 19:42:00,,0832.2,4.99,0.00,26.3,25.6,00.0,35.1,28.2,07.2,0000.0,0005.89,0002.78,0002.01
2021-11-25 19:43:00,,0832.2,5.00,0.00,26.3,25.6,00.0,35.2,28.2,07.5,0000.0,0006.07,0002.88,0002.11
2021-11-25 19:44:00,,0832.2,5.01,0.00,26.4,25.6,00.0,35.2,28.2,08.8,0000.0,0007.38,0003.09,0002.30
2021-11-25 19:45:00,,0832.2,4.99,0.00,26.4,25.7,00.0,35.2,28.3,08.8,0000.0,0008.38,0003.24,0002.52
2021-11-25 19:46:00,,0832.2,5.00,0.00,26.4,25.7,00.0,35.2,28.3,08.3,0000.0,0009.01,0003.34,0002.70
2021-11-25 19:47:00,,0832.2,5.00,0.00,26.4,25.7,00.0,35.3,28.3,08.6,0000.0,0009.16,0003.43,0002.84
2021-11-25 19:48:00,,0832.3,4.99,0.00,26.5,25.8,00.0,35.3,28.3,08.8,0000.0,0009.36,0003.45,0002.89
2021-11-25 19:49:00,,0832.3,5.02,0.00,26.5,25.8,00.0,35.3,28.4,08.9,0000.0,0009.91,0003.49,0002.97
2021-11-25 19:50:00,,0832.2,4.99,0.00,26.5,25.8,00.0,35.3,28.4,08.9,0000.0,0010.23,0003.57,0003.08
2021-11-25 19:51:00,,0832.3,5.00,0.00,26.5,25.8,00.0,35.3,28.4,08.6,0000.0,0010.47,0003.61,0003.16
2021-11-25 19:52:00,,0832.3,5.00,0.00,26.6,25.9,00.0,35.4,28.4,08.2,0000.0,0010.26,0003.63,0003.21
2021-11-25 19:53:00,,0832.2,5.01,0.00,26.6,25.9,00.0,35.4,28.4,08.3,0000.0,0010.32,0003.70,0003.26
2021-11-25 19:54:00,,0832.2,4.98,0.00,26.6,25.9,00.0,35.4,28.5,08.6,0000.0,0010.54,0003.73,0003.32
2021-11-25 19:55:00,,0832.2,5.01,0.00,26.6,25.9,00.0,35.4,28.5,08.4,0000.0,0010.61,0003.74,0003.33
2021-11-25 19:56:00,,0832.2,4.99,0.00,26.6,26.0,00.0,35.5,28.5,08.5,0000.0,0009.81,0003.74,0003.33
2021-11-25 19:57:00,,0832.3,5.02,0.00,26.7,26.0,00.0,35.5,28.6,08.7,0000.0,0009.33,0003.78,0003.36
2021-11-25 19:58:00,,0832.2,4.99,0.00,26.7,26.0,00.0,35.5,28.6,08.5,0000.0,0009.22,0003.76,0003.38
2021-11-25 19:59:00,,0832.4,5.00,0.00,26.7,26.0,00.0,35.5,28.6,08.5,0000.0,0009.02,0003.75,0003.37
